Weaverville, CA

9:37 AM PDT on April 23, 2017 (GMT -0700)
Weaverville

Weather History for KO54 - September, 2012

Change the Weather History Date:

Friday, September 28, 2012

  Actual Average (KRDD) Record (KRDD)
Temperature  
Mean Temperature 68 °F -  
Max Temperature 89 °F 86 °F 103 °F (2010)
Min Temperature 46 °F 53 °F 46 °F (1986)
Cooling Degree Days 2    
Growing Degree Days 18 (Base 50)    
Moisture  
Dew Point 37 °F    
Average Humidity 40    
Maximum Humidity 76    
Minimum Humidity 13    
Precipitation  
Precipitation 0.00 in - - ()
Sea Level Pressure  
Sea Level Pressure 30.00 in    
Wind  
Wind Speed 2 mph (West)    
Max Wind Speed 13 mph    
Max Gust Speed 21 mph    
Visibility 10 miles    
Events      
Averages and records for this station are not official NWS values.
T = Trace of Precipitation, MM = Missing Value Source: NWS Daily Summary

Daily Weather History Graph

Daily Weather History Graph

Search for Another Location

Airport or City:

Trip Planner

Search our weather history database for the weather conditions in past years. The results will help you decide how hot, cold, wet, or windy it might be!

Date:

Astronomy

Sep. 28, 2012 Rise Set
Actual Time 7:05 AM PDT 6:57 PM PDT
Civil Twilight 6:38 AM PDT 7:24 PM PDT
Nautical Twilight 6:06 AM PDT 7:56 PM PDT
Astronomical Twilight 5:34 AM PDT 8:28 PM PDT
Moon 6:02 PM PDT (9/28) 5:41 AM PDT (9/28)
Length of Visible Light 12h 46m
Length of Day
11h 51m
Waxing Gibbous, 98% of the Moon is Illuminated
Sep 28
Waxing Gibbous
Sep 29
Full
Oct 8
Last Quarter
Oct 15
New
Oct 21
First Quarter

Hourly Weather History & Observations

Time (PDT) Temp. Dew Point Humidity Pressure Visibility Wind Dir Wind Speed Gust Speed Precip Events Conditions
12:15 AM 57.2 °F 37.4 °F 48% 29.99 in 10.0 mi Calm Calm - N/A   Unknown
12:35 AM 55.4 °F 37.4 °F 51% 29.99 in 10.0 mi Calm Calm - N/A   Unknown
12:55 AM 55.4 °F 39.2 °F 54% 29.99 in 10.0 mi NE 3.5 mph - N/A   Unknown
1:15 AM 53.6 °F 39.2 °F 58% 29.99 in 10.0 mi Calm Calm - N/A   Unknown
1:35 AM 53.6 °F 39.2 °F 58% 30.00 in 10.0 mi Calm Calm - N/A   Unknown
1:55 AM 53.6 °F 39.2 °F 58% 30.00 in 10.0 mi Calm Calm - N/A   Unknown
2:15 AM 53.6 °F 39.2 °F 58% 30.00 in 10.0 mi Calm Calm - N/A   Unknown
2:35 AM 51.8 °F 39.2 °F 62% 30.00 in 10.0 mi Calm Calm - N/A   Unknown
2:55 AM 51.8 °F 39.2 °F 62% 30.00 in 10.0 mi Calm Calm - N/A   Unknown
3:15 AM 51.8 °F 37.4 °F 58% 30.00 in 10.0 mi Calm Calm - N/A   Unknown
3:35 AM 50.0 °F 37.4 °F 62% 30.00 in 10.0 mi Calm Calm - N/A   Unknown
3:55 AM 50.0 °F 37.4 °F 62% 30.00 in 10.0 mi Calm Calm - N/A   Unknown
4:15 AM 50.0 °F 39.2 °F 66% 30.00 in 10.0 mi Calm Calm - N/A   Unknown
4:35 AM 48.2 °F 39.2 °F 71% 30.00 in 10.0 mi Calm Calm - N/A   Unknown
4:55 AM 48.2 °F 39.2 °F 71% 30.00 in 10.0 mi Calm Calm - N/A   Unknown
5:15 AM 48.2 °F 37.4 °F 66% 30.00 in 10.0 mi NNE 3.5 mph - N/A   Unknown
5:35 AM 48.2 °F 37.4 °F 66% 30.01 in 10.0 mi Calm Calm - N/A   Unknown
5:55 AM 48.2 °F 39.2 °F 71% 30.01 in 10.0 mi Calm Calm - N/A   Unknown
6:15 AM 46.4 °F 37.4 °F 71% 30.02 in 10.0 mi Calm Calm - N/A   Unknown
6:35 AM 46.4 °F 37.4 °F 71% 30.02 in 10.0 mi Calm Calm - N/A   Unknown
6:55 AM 46.4 °F 37.4 °F 71% 30.02 in 10.0 mi Calm Calm - N/A   Unknown
7:15 AM 46.4 °F 37.4 °F 71% 30.03 in 10.0 mi Calm Calm - N/A   Unknown
7:35 AM 46.4 °F 39.2 °F 76% 30.04 in 10.0 mi Calm Calm - N/A   Unknown
7:55 AM 48.2 °F 39.2 °F 71% 30.04 in 10.0 mi Calm Calm - N/A   Unknown
8:15 AM 48.2 °F 39.2 °F 71% 30.04 in 10.0 mi Calm Calm - N/A   Unknown
8:35 AM 51.8 °F 39.2 °F 62% 30.05 in 10.0 mi Calm Calm - N/A   Unknown
8:55 AM 55.4 °F 39.2 °F 54% 30.05 in 10.0 mi Calm Calm - N/A   Unknown
9:15 AM 57.2 °F 39.2 °F 51% 30.05 in 10.0 mi Calm Calm - N/A   Unknown
9:35 AM 59.0 °F 39.2 °F 48% 30.05 in 10.0 mi Calm Calm - N/A   Unknown
9:55 AM 62.6 °F 39.2 °F 42% 30.05 in 10.0 mi Calm Calm - N/A   Unknown
10:15 AM 64.4 °F 39.2 °F 40% 30.05 in 10.0 mi Calm Calm - N/A   Unknown
10:35 AM 66.2 °F 39.2 °F 37% 30.04 in 10.0 mi Calm Calm - N/A   Unknown
10:55 AM 69.8 °F 39.2 °F 33% 30.04 in 10.0 mi SW 4.6 mph - N/A   Unknown
11:15 AM 71.6 °F 39.2 °F 31% 30.03 in 10.0 mi SSW 4.6 mph - N/A   Unknown
11:35 AM 73.4 °F 41.0 °F 31% 30.03 in 10.0 mi SSW 4.6 mph - N/A   Unknown
11:55 AM 75.2 °F 41.0 °F 29% 30.02 in 10.0 mi Calm Calm - N/A   Unknown
12:15 PM 77.0 °F 39.2 °F 26% 30.01 in 10.0 mi Calm Calm - N/A   Unknown
12:35 PM 80.6 °F 41.0 °F 24% 30.01 in 10.0 mi SSW 4.6 mph - N/A   Unknown
12:55 PM 82.4 °F 41.0 °F 23% 30.00 in 10.0 mi SW 4.6 mph - N/A   Unknown
1:15 PM 86.0 °F 37.4 °F 18% 29.99 in 10.0 mi South 5.8 mph - N/A   Unknown
1:35 PM 86.0 °F 32.0 °F 14% 29.98 in 10.0 mi Calm Calm - N/A   Unknown
1:55 PM 89.6 °F 32.0 °F 13% 29.97 in 10.0 mi WSW 10.4 mph 16.1 mph N/A   Unknown
2:15 PM 87.8 °F 32.0 °F 14% 29.97 in 10.0 mi WSW 10.4 mph 16.1 mph N/A   Unknown
2:35 PM 89.6 °F 32.0 °F 13% 29.96 in 10.0 mi SW 11.5 mph 18.4 mph N/A   Unknown
2:55 PM 89.6 °F 32.0 °F 13% 29.96 in 10.0 mi NW 8.1 mph - N/A   Unknown
3:15 PM 87.8 °F 32.0 °F 14% 29.95 in 10.0 mi SW 6.9 mph - N/A   Unknown
3:35 PM 89.6 °F 32.0 °F 13% 29.95 in 10.0 mi WSW 6.9 mph - N/A   Unknown
3:55 PM 89.6 °F 32.0 °F 13% 29.95 in 10.0 mi WNW 6.9 mph 16.1 mph N/A   Unknown
4:15 PM 89.6 °F 32.0 °F 13% 29.94 in 10.0 mi West 9.2 mph 17.3 mph N/A   Unknown
4:35 PM 89.6 °F 32.0 °F 13% 29.94 in 10.0 mi WNW 8.1 mph - N/A   Unknown
4:55 PM 87.8 °F 32.0 °F 14% 29.94 in 10.0 mi SSW 12.7 mph 20.7 mph N/A   Unknown
5:15 PM 86.0 °F 32.0 °F 14% 29.94 in 10.0 mi SW 9.2 mph 18.4 mph N/A   Unknown
5:35 PM 86.0 °F 32.0 °F 14% 29.95 in 10.0 mi NW 6.9 mph - N/A   Unknown
5:55 PM 86.0 °F 32.0 °F 14% 29.95 in 10.0 mi WSW 3.5 mph - N/A   Unknown
6:15 PM 84.2 °F 32.0 °F 15% 29.95 in 10.0 mi WNW 5.8 mph - N/A   Clear
6:35 PM 84.2 °F 32.0 °F 15% 29.96 in 10.0 mi NW 4.6 mph - N/A   Unknown
6:55 PM 82.4 °F 32.0 °F 16% 29.96 in 10.0 mi WNW 6.9 mph - N/A   Unknown
7:15 PM 82.4 °F 32.0 °F 16% 29.97 in 10.0 mi Calm Calm - N/A   Unknown
7:35 PM 77.0 °F 35.6 °F 22% 29.97 in 10.0 mi South 3.5 mph - N/A   Unknown
7:55 PM 71.6 °F 37.4 °F 29% 29.98 in 10.0 mi Calm Calm - N/A   Unknown
8:15 PM 69.8 °F 35.6 °F 28% 29.99 in 10.0 mi NNE 3.5 mph - N/A   Unknown
8:35 PM 66.2 °F 37.4 °F 35% 30.00 in 10.0 mi Calm Calm - N/A   Unknown
8:55 PM 66.2 °F 37.4 °F 35% 30.00 in 10.0 mi NNE 3.5 mph - N/A   Unknown
9:15 PM 64.4 °F 35.6 °F 34% 30.01 in 10.0 mi NNE 4.6 mph - N/A   Unknown
9:35 PM 62.6 °F 35.6 °F 37% 30.02 in 10.0 mi NNE 3.5 mph - N/A   Unknown
9:55 PM 62.6 °F 35.6 °F 37% 30.02 in 10.0 mi NNE 4.6 mph - N/A   Unknown
10:15 PM 59.0 °F 35.6 °F 42% 30.03 in 10.0 mi NE 4.6 mph - N/A   Unknown
10:35 PM 59.0 °F 35.6 °F 42% 30.03 in 10.0 mi NNE 3.5 mph - N/A   Unknown
10:55 PM 59.0 °F 33.8 °F 39% 30.03 in 10.0 mi Calm Calm - N/A   Unknown
11:15 PM 57.2 °F 35.6 °F 44% 30.04 in 10.0 mi Calm Calm - N/A   Unknown
11:35 PM 57.2 °F 35.6 °F 44% 30.04 in 10.0 mi Calm Calm - N/A   Unknown
11:55 PM 55.4 °F 33.8 °F 44% 30.05 in 10.0 mi Calm Calm - N/A   Unknown